Voltar ao catálogo

NOAA 16 DEB

AtivoPO
NORAD 41160·DEBRIS·🇺🇸 United States

Lançado Sep 21, 2000 de Vandenberg Space Force Base

Loading…

Próximas Passagens (próximas 24 horas)

TLE

AtualizadoSource: Space-Track

Época: Sep 14, 2026, 02:55 UTC

1 41160U 00055CT  26257.12186682  .00011631  00000-0  27215-2 0  9999
2 41160  98.8360  18.3067 0014789 206.0749 153.9703 14.54707240558358

Acompanhe NOAA 16 DEB em tempo real com AllMySat

Download on the App Store